Time,TemperatureF,DewpointF,PressureIn,WindDirection,WindDirectionDegrees,WindSpeedMPH,WindSpeedGustMPH,Humidity,HourlyPrecipIn,Conditions,Clouds,dailyrainin,SoftwareType,DateUTC
2013-09-07 00:02:00,59.0,48.4,30.02,WNW,302,0.0,0.0,68,0.00,,,0.00,Wunderground v.1.15,2013-09-07 04:02:00,
2013-09-07 00:07:00,58.9,48.7,30.02,WNW,302,0.0,0.0,69,0.00,,,0.00,Wunderground v.1.15,2013-09-07 04:07:00,
2013-09-07 00:17:00,58.9,49.1,30.02,NW,304,0.0,0.0,70,0.00,,,0.00,Wunderground v.1.15,2013-09-07 04:17:00,
2013-09-07 00:23:00,58.7,48.9,30.02,WNW,302,0.0,0.0,70,0.00,,,0.00,Wunderground v.1.15,2013-09-07 04:23:00,
2013-09-07 00:32:00,58.7,48.9,30.02,WNW,302,0.0,0.0,70,0.00,,,0.00,Wunderground v.1.15,2013-09-07 04:32:00,
2013-09-07 00:37:00,58.7,48.9,30.02,WNW,298,0.0,0.0,70,0.00,,,0.00,Wunderground v.1.15,2013-09-07 04:37:00,
2013-09-07 00:47:00,58.7,49.3,30.02,WNW,299,0.0,0.0,71,0.00,,,0.00,Wunderground v.1.15,2013-09-07 04:47:00,
2013-09-07 00:57:00,58.7,49.3,30.02,SW,223,0.0,0.0,71,0.00,,,0.00,Wunderground v.1.15,2013-09-07 04:57:00,
2013-09-07 01:02:00,58.7,49.3,30.02,SW,223,0.0,0.0,71,0.00,,,0.00,Wunderground v.1.15,2013-09-07 05:02:00,
2013-09-07 01:12:00,58.7,49.3,30.02,SW,223,0.0,0.0,71,0.00,,,0.00,Wunderground v.1.15,2013-09-07 05:12:00,
2013-09-07 01:27:00,58.6,49.6,30.01,WSW,248,0.0,0.0,72,0.00,,,0.00,Wunderground v.1.15,2013-09-07 05:27:00,
2013-09-07 01:32:00,58.4,49.4,30.01,WSW,248,0.0,0.0,72,0.00,,,0.00,Wunderground v.1.15,2013-09-07 05:32:00,
2013-09-07 01:37:00,58.3,49.7,30.01,WSW,248,0.0,0.0,73,0.00,,,0.00,Wunderground v.1.15,2013-09-07 05:37:00,
2013-09-07 01:42:00,58.3,49.7,30.01,WSW,237,0.0,0.0,73,0.00,,,0.00,Wunderground v.1.15,2013-09-07 05:42:00,
2013-09-07 01:57:00,58.0,49.8,30.01,WSW,237,0.0,0.0,74,0.00,,,0.00,Wunderground v.1.15,2013-09-07 05:57:00,
2013-09-07 02:02:00,57.8,49.6,30.00,WSW,237,0.0,0.0,74,0.00,,,0.00,Wunderground v.1.15,2013-09-07 06:02:00,
2013-09-07 02:07:00,57.8,49.6,30.00,WSW,237,0.0,0.0,74,0.00,,,0.00,Wunderground v.1.15,2013-09-07 06:07:00,
2013-09-07 02:17:00,57.5,49.3,30.00,WSW,237,0.0,0.0,74,0.00,,,0.00,Wunderground v.1.15,2013-09-07 06:17:00,
2013-09-07 02:27:00,57.5,49.3,30.00,WSW,237,0.0,0.0,74,0.00,,,0.00,Wunderground v.1.15,2013-09-07 06:27:00,
2013-09-07 02:42:00,57.5,49.3,30.00,WSW,237,0.0,0.0,74,0.00,,,0.00,Wunderground v.1.15,2013-09-07 06:42:00,
2013-09-07 02:52:00,57.3,49.4,30.00,WSW,237,0.0,0.0,75,0.00,,,0.00,Wunderground v.1.15,2013-09-07 06:52:00,
2013-09-07 03:02:00,57.2,49.3,30.00,WSW,237,0.0,0.0,75,0.00,,,0.00,Wunderground v.1.15,2013-09-07 07:02:00,
2013-09-07 03:07:00,57.0,49.2,30.00,WSW,237,0.0,0.0,75,0.00,,,0.00,Wunderground v.1.15,2013-09-07 07:07:00,
2013-09-07 03:17:00,56.7,48.9,29.99,WSW,237,0.0,0.0,75,0.00,,,0.00,Wunderground v.1.15,2013-09-07 07:17:00,
2013-09-07 03:23:00,56.6,48.8,29.99,WSW,237,0.0,0.0,75,0.00,,,0.00,Wunderground v.1.15,2013-09-07 07:23:00,
2013-09-07 03:32:00,56.5,48.7,29.99,South,174,0.0,0.0,75,0.00,,,0.00,Wunderground v.1.15,2013-09-07 07:32:00,
2013-09-07 03:37:00,56.5,48.7,29.99,South,174,0.0,0.0,75,0.00,,,0.00,Wunderground v.1.15,2013-09-07 07:37:00,
2013-09-07 03:47:00,56.3,48.5,29.98,South,175,0.0,0.0,75,0.00,,,0.00,Wunderground v.1.15,2013-09-07 07:47:00,
2013-09-07 03:52:00,56.2,48.4,29.98,South,175,0.0,0.0,75,0.00,,,0.00,Wunderground v.1.15,2013-09-07 07:52:00,
2013-09-07 04:02:00,56.0,48.2,29.99,South,175,0.0,0.0,75,0.00,,,0.00,Wunderground v.1.15,2013-09-07 08:02:00,
2013-09-07 04:07:00,55.9,48.1,29.99,South,175,0.0,0.0,75,0.00,,,0.00,Wunderground v.1.15,2013-09-07 08:07:00,
2013-09-07 04:12:00,55.7,47.9,29.99,South,175,0.0,0.0,75,0.00,,,0.00,Wunderground v.1.15,2013-09-07 08:12:00,
2013-09-07 04:23:00,55.6,48.2,29.99,South,175,0.0,0.0,76,0.00,,,0.00,Wunderground v.1.15,2013-09-07 08:23:00,
2013-09-07 04:32:00,55.3,47.9,29.99,South,175,0.0,0.0,76,0.00,,,0.00,Wunderground v.1.15,2013-09-07 08:32:00,
2013-09-07 04:37:00,55.3,47.9,29.99,South,175,0.0,0.0,76,0.00,,,0.00,Wunderground v.1.15,2013-09-07 08:37:00,
2013-09-07 04:47:00,55.3,47.9,29.98,South,175,0.0,0.0,76,0.00,,,0.00,Wunderground v.1.15,2013-09-07 08:47:00,
2013-09-07 04:52:00,55.3,47.5,29.98,South,174,0.0,0.0,75,0.00,,,0.00,Wunderground v.1.15,2013-09-07 08:52:00,
2013-09-07 05:02:00,55.1,47.3,29.98,South,175,0.0,0.0,75,0.00,,,0.00,Wunderground v.1.15,2013-09-07 09:02:00,
2013-09-07 05:12:00,55.4,47.2,29.98,South,175,0.0,0.0,74,0.00,,,0.00,Wunderground v.1.15,2013-09-07 09:12:00,
2013-09-07 05:23:00,55.7,47.5,29.97,South,174,0.0,0.0,74,0.00,,,0.00,Wunderground v.1.15,2013-09-07 09:23:00,
2013-09-07 05:32:00,55.7,47.5,29.98,South,175,0.0,0.0,74,0.00,,,0.00,Wunderground v.1.15,2013-09-07 09:32:00,
2013-09-07 05:38:00,55.7,47.5,29.98,South,175,0.0,0.0,74,0.00,,,0.00,Wunderground v.1.15,2013-09-07 09:38:00,
2013-09-07 05:47:00,55.9,47.4,29.98,South,175,0.0,0.0,73,0.00,,,0.00,Wunderground v.1.15,2013-09-07 09:47:00,
2013-09-07 05:57:00,55.9,47.4,29.98,South,175,0.0,0.0,73,0.00,,,0.00,Wunderground v.1.15,2013-09-07 09:57:00,
2013-09-07 06:07:00,56.0,47.1,29.97,South,175,0.0,0.0,72,0.00,,,0.00,Wunderground v.1.15,2013-09-07 10:07:00,
2013-09-07 06:12:00,56.2,47.3,29.97,South,175,0.0,0.0,72,0.00,,,0.00,Wunderground v.1.15,2013-09-07 10:12:00,
2013-09-07 06:17:00,56.2,47.3,29.97,South,175,0.0,0.0,72,0.00,,,0.00,Wunderground v.1.15,2013-09-07 10:17:00,
2013-09-07 06:22:00,56.3,47.0,29.97,South,175,0.0,0.0,71,0.00,,,0.00,Wunderground v.1.15,2013-09-07 10:22:00,
2013-09-07 06:32:00,56.5,47.2,29.97,South,175,0.0,0.0,71,0.00,,,0.00,Wunderground v.1.15,2013-09-07 10:32:00,
2013-09-07 06:42:00,56.5,47.2,29.97,South,176,0.0,0.0,71,0.00,,,0.00,Wunderground v.1.15,2013-09-07 10:42:00,
2013-09-07 06:47:00,56.5,47.2,29.97,South,176,0.0,0.0,71,0.00,,,0.00,Wunderground v.1.15,2013-09-07 10:47:00,
2013-09-07 06:52:00,56.5,47.2,29.97,South,176,0.0,0.0,71,0.00,,,0.00,Wunderground v.1.15,2013-09-07 10:52:00,
2013-09-07 07:02:00,56.6,47.3,29.97,South,176,0.0,0.0,71,0.00,,,0.00,Wunderground v.1.15,2013-09-07 11:02:00,
2013-09-07 07:07:00,56.7,47.4,29.97,South,176,0.0,0.0,71,0.00,,,0.00,Wunderground v.1.15,2013-09-07 11:07:00,
2013-09-07 07:12:00,56.7,47.4,29.97,South,176,0.0,0.0,71,0.00,,,0.00,Wunderground v.1.15,2013-09-07 11:12:00,
2013-09-07 07:27:00,56.9,47.2,29.97,South,176,0.0,0.0,70,0.00,,,0.00,Wunderground v.1.15,2013-09-07 11:27:00,
2013-09-07 07:32:00,57.0,47.3,29.97,South,176,0.0,0.0,70,0.00,,,0.00,Wunderground v.1.15,2013-09-07 11:32:00,
2013-09-07 07:37:00,57.0,46.9,29.97,South,176,0.0,0.0,69,0.00,,,0.00,Wunderground v.1.15,2013-09-07 11:37:00,
2013-09-07 07:47:00,57.3,47.2,29.97,South,176,0.0,0.0,69,0.00,,,0.00,Wunderground v.1.15,2013-09-07 11:47:00,
2013-09-07 07:53:00,57.6,47.1,29.97,South,176,0.0,0.0,68,0.00,,,0.00,Wunderground v.1.15,2013-09-07 11:53:00,
2013-09-07 08:02:00,58.0,47.5,29.97,South,178,0.0,0.0,68,0.00,,,0.00,Wunderground v.1.15,2013-09-07 12:02:00,
2013-09-07 08:07:00,58.1,47.6,29.97,SSW,198,0.0,0.0,68,0.00,,,0.00,Wunderground v.1.15,2013-09-07 12:07:00,
2013-09-07 08:12:00,58.1,47.2,29.97,SSW,198,0.0,0.0,67,0.00,,,0.00,Wunderground v.1.15,2013-09-07 12:12:00,
2013-09-07 08:27:00,58.4,47.9,29.98,SSW,198,0.0,0.0,68,0.00,,,0.00,Wunderground v.1.15,2013-09-07 12:27:00,
2013-09-07 08:42:00,58.7,47.8,29.97,SSW,198,0.0,0.0,67,0.00,,,0.00,Wunderground v.1.15,2013-09-07 12:42:00,
2013-09-07 08:57:00,59.3,47.9,29.96,SSW,199,0.0,0.0,66,0.00,,,0.00,Wunderground v.1.15,2013-09-07 12:57:00,
2013-09-07 09:07:00,59.9,48.1,29.96,South,172,0.0,0.0,65,0.00,,,0.00,Wunderground v.1.15,2013-09-07 13:07:00,
2013-09-07 09:12:00,60.2,48.0,29.96,South,172,0.0,0.0,64,0.00,,,0.00,Wunderground v.1.15,2013-09-07 13:12:00,
2013-09-07 09:17:00,60.5,48.3,29.96,South,172,0.0,0.0,64,0.00,,,0.00,Wunderground v.1.15,2013-09-07 13:17:00,
2013-09-07 09:27:00,60.9,48.6,29.96,South,172,0.0,0.0,64,0.00,,,0.00,Wunderground v.1.15,2013-09-07 13:27:00,
2013-09-07 09:32:00,61.0,48.7,29.96,South,172,0.0,0.0,64,0.00,,,0.00,Wunderground v.1.15,2013-09-07 13:32:00,
2013-09-07 09:37:00,61.0,48.3,29.96,South,172,0.0,0.0,63,0.00,,,0.00,Wunderground v.1.15,2013-09-07 13:37:00,
2013-09-07 09:47:00,61.2,48.5,29.96,South,172,0.0,0.0,63,0.00,,,0.00,Wunderground v.1.15,2013-09-07 13:47:00,
2013-09-07 09:53:00,61.3,48.6,29.96,South,172,0.0,0.0,63,0.00,,,0.00,Wunderground v.1.15,2013-09-07 13:53:00,
2013-09-07 10:02:00,61.5,48.8,29.96,South,172,0.0,0.0,63,0.00,,,0.00,Wunderground v.1.15,2013-09-07 14:02:00,
2013-09-07 10:12:00,61.5,49.2,29.96,South,172,0.0,0.0,64,0.00,,,0.00,Wunderground v.1.15,2013-09-07 14:12:00,
2013-09-07 10:23:00,61.6,49.7,29.96,South,174,0.0,0.0,65,0.00,,,0.00,Wunderground v.1.15,2013-09-07 14:23:00,
2013-09-07 10:32:00,61.3,51.0,29.96,South,174,0.0,0.0,69,0.00,,,0.01,Wunderground v.1.15,2013-09-07 14:32:00,
2013-09-07 10:42:00,60.5,51.0,29.96,South,174,0.0,0.0,71,0.00,,,0.01,Wunderground v.1.15,2013-09-07 14:42:00,
2013-09-07 10:47:00,60.2,51.5,29.95,South,174,0.0,0.0,73,0.00,,,0.01,Wunderground v.1.15,2013-09-07 14:47:00,
2013-09-07 10:53:00,60.2,51.9,29.95,South,174,0.0,0.0,74,0.00,,,0.01,Wunderground v.1.15,2013-09-07 14:53:00,
2013-09-07 11:02:00,60.2,51.9,29.94,South,174,0.0,0.0,74,0.00,,,0.01,Wunderground v.1.15,2013-09-07 15:02:00,
2013-09-07 11:12:00,60.4,51.7,29.94,South,171,0.0,0.0,73,0.00,,,0.01,Wunderground v.1.15,2013-09-07 15:12:00,
2013-09-07 11:17:00,60.5,51.4,29.94,South,172,0.0,0.0,72,0.00,,,0.01,Wunderground v.1.15,2013-09-07 15:17:00,
2013-09-07 11:27:00,60.7,51.2,29.94,South,175,0.0,0.0,71,0.00,,,0.01,Wunderground v.1.15,2013-09-07 15:27:00,
2013-09-07 11:37:00,60.9,51.4,29.93,South,176,0.0,0.0,71,0.00,,,0.01,Wunderground v.1.15,2013-09-07 15:37:00,
2013-09-07 11:47:00,61.2,50.9,29.93,South,175,0.0,0.0,69,0.00,,,0.01,Wunderground v.1.15,2013-09-07 15:47:00,
2013-09-07 11:53:00,61.3,51.4,29.93,South,175,0.0,0.0,70,0.00,,,0.01,Wunderground v.1.15,2013-09-07 15:53:00,
2013-09-07 12:02:00,61.3,51.8,29.92,South,176,0.0,0.0,71,0.00,,,0.01,Wunderground v.1.15,2013-09-07 16:02:00,
2013-09-07 12:07:00,61.3,51.8,29.92,South,176,0.0,0.0,71,0.00,,,0.01,Wunderground v.1.15,2013-09-07 16:07:00,
2013-09-07 12:17:00,61.3,52.2,29.91,SSE,162,0.0,0.0,72,0.00,,,0.01,Wunderground v.1.15,2013-09-07 16:17:00,
2013-09-07 12:27:00,61.6,52.1,29.91,SSW,192,0.0,0.0,71,0.00,,,0.01,Wunderground v.1.15,2013-09-07 16:27:00,
2013-09-07 12:32:00,61.8,52.3,29.90,SSE,164,0.0,0.0,71,0.00,,,0.01,Wunderground v.1.15,2013-09-07 16:32:00,
2013-09-07 12:42:00,62.3,52.4,29.90,SSE,164,0.0,0.0,70,0.00,,,0.01,Wunderground v.1.15,2013-09-07 16:42:00,
2013-09-07 12:47:00,62.6,53.1,29.91,SSE,164,0.0,0.0,71,0.00,,,0.01,Wunderground v.1.15,2013-09-07 16:47:00,
2013-09-07 12:57:00,62.9,53.0,29.91,South,172,0.0,0.0,70,0.00,,,0.01,Wunderground v.1.15,2013-09-07 16:57:00,
2013-09-07 13:02:00,62.9,52.6,29.91,South,172,0.0,0.0,69,0.00,,,0.01,Wunderground v.1.15,2013-09-07 17:02:00,
2013-09-07 13:12:00,63.1,52.8,29.91,South,169,0.0,0.0,69,0.00,,,0.01,Wunderground v.1.15,2013-09-07 17:12:00,
2013-09-07 13:27:00,63.1,53.9,29.90,SSE,165,0.0,0.0,72,0.00,,,0.01,Wunderground v.1.15,2013-09-07 17:27:00,
2013-09-07 13:37:00,62.9,54.5,29.90,SSE,165,0.0,0.0,74,0.00,,,0.02,Wunderground v.1.15,2013-09-07 17:37:00,
2013-09-07 13:47:00,62.7,55.4,29.90,SSE,165,0.0,0.0,77,0.00,,,0.02,Wunderground v.1.15,2013-09-07 17:47:00,
2013-09-07 13:57:00,62.4,55.8,29.90,SSE,165,0.0,0.0,79,0.00,,,0.03,Wunderground v.1.15,2013-09-07 17:57:00,
2013-09-07 14:07:00,62.4,56.5,29.90,SSE,165,0.0,0.0,81,0.00,,,0.03,Wunderground v.1.15,2013-09-07 18:07:00,
2013-09-07 14:17:00,62.4,56.8,29.90,SSE,165,0.0,0.0,82,0.04,,,0.04,Wunderground v.1.15,2013-09-07 18:17:00,
2013-09-07 14:27:00,62.6,57.4,29.90,SSE,165,0.0,0.0,83,0.00,,,0.04,Wunderground v.1.15,2013-09-07 18:27:00,
2013-09-07 14:37:00,62.6,57.4,29.89,SSE,165,0.0,0.0,83,0.00,,,0.04,Wunderground v.1.15,2013-09-07 18:37:00,
2013-09-07 14:47:00,62.6,58.0,29.88,SSE,165,0.0,0.0,85,0.00,,,0.05,Wunderground v.1.15,2013-09-07 18:47:00,
2013-09-07 14:53:00,62.6,57.7,29.88,SSE,165,0.0,0.0,84,0.00,,,0.05,Wunderground v.1.15,2013-09-07 18:53:00,
2013-09-07 15:02:00,63.5,58.9,29.88,SSE,165,0.0,0.0,85,0.00,,,0.05,Wunderground v.1.15,2013-09-07 19:02:00,
2013-09-07 15:12:00,64.2,58.6,29.88,SSE,165,0.0,0.0,82,0.00,,,0.05,Wunderground v.1.15,2013-09-07 19:12:00,
2013-09-07 15:27:00,64.5,57.8,29.87,SSE,167,0.0,0.0,79,0.00,,,0.05,Wunderground v.1.15,2013-09-07 19:27:00,
2013-09-07 15:32:00,64.5,57.5,29.86,SSE,167,0.0,0.0,78,0.00,,,0.05,Wunderground v.1.15,2013-09-07 19:32:00,
2013-09-07 15:37:00,64.7,58.0,29.86,SSE,167,0.0,0.0,79,0.00,,,0.05,Wunderground v.1.15,2013-09-07 19:37:00,
2013-09-07 15:47:00,64.8,57.8,29.86,SSE,167,0.0,0.0,78,0.00,,,0.05,Wunderground v.1.15,2013-09-07 19:47:00,
2013-09-07 15:52:00,64.7,57.7,29.86,SSE,167,0.0,0.0,78,0.00,,,0.05,Wunderground v.1.15,2013-09-07 19:52:00,
2013-09-07 16:02:00,64.8,58.1,29.86,SSE,167,0.0,0.0,79,0.00,,,0.05,Wunderground v.1.15,2013-09-07 20:02:00,
2013-09-07 16:12:00,64.7,58.0,29.86,SSE,167,0.0,0.0,79,0.00,,,0.05,Wunderground v.1.15,2013-09-07 20:12:00,
2013-09-07 16:27:00,64.0,57.4,29.86,SSE,167,0.0,0.0,79,0.00,,,0.05,Wunderground v.1.15,2013-09-07 20:27:00,
2013-09-07 16:37:00,63.5,56.5,29.86,SSE,167,0.0,0.0,78,0.00,,,0.05,Wunderground v.1.15,2013-09-07 20:37:00,
2013-09-07 16:47:00,63.4,56.8,29.85,SSE,167,0.0,0.0,79,0.00,,,0.05,Wunderground v.1.15,2013-09-07 20:47:00,
2013-09-07 16:52:00,63.2,56.6,29.85,SSE,167,0.0,0.0,79,0.00,,,0.05,Wunderground v.1.15,2013-09-07 20:52:00,
2013-09-07 17:02:00,62.7,56.4,29.84,SSW,198,0.0,0.0,80,0.00,,,0.05,Wunderground v.1.15,2013-09-07 21:02:00,
2013-09-07 17:07:00,62.4,56.5,29.84,SSW,199,0.0,0.0,81,0.00,,,0.05,Wunderground v.1.15,2013-09-07 21:07:00,
2013-09-07 17:17:00,62.3,57.1,29.84,South,181,0.0,0.0,83,0.00,,,0.05,Wunderground v.1.15,2013-09-07 21:17:00,
2013-09-07 17:23:00,62.1,56.9,29.84,South,181,0.0,0.0,83,0.00,,,0.05,Wunderground v.1.15,2013-09-07 21:23:00,
2013-09-07 17:32:00,62.1,57.2,29.83,South,181,0.0,0.0,84,0.00,,,0.05,Wunderground v.1.15,2013-09-07 21:32:00,
2013-09-07 17:37:00,62.0,57.1,29.83,SSW,195,0.0,0.0,84,0.00,,,0.05,Wunderground v.1.15,2013-09-07 21:37:00,
2013-09-07 17:47:00,62.0,57.4,29.83,SSE,167,0.0,0.0,85,0.00,,,0.06,Wunderground v.1.15,2013-09-07 21:47:00,
2013-09-07 17:52:00,62.0,57.4,29.83,SSE,167,0.0,0.0,85,0.00,,,0.06,Wunderground v.1.15,2013-09-07 21:52:00,
2013-09-07 18:02:00,62.1,58.2,29.83,SSE,167,0.0,0.0,87,0.00,,,0.06,Wunderground v.1.15,2013-09-07 22:02:00,
2013-09-07 18:12:00,62.1,57.9,29.83,SSE,167,0.0,0.0,86,0.00,,,0.06,Wunderground v.1.15,2013-09-07 22:12:00,
2013-09-07 18:17:00,62.1,57.9,29.83,SSE,167,0.0,0.0,86,0.00,,,0.06,Wunderground v.1.15,2013-09-07 22:17:00,
2013-09-07 18:22:00,62.3,58.1,29.83,SSE,167,0.0,0.0,86,0.00,,,0.06,Wunderground v.1.15,2013-09-07 22:22:00,
2013-09-07 18:32:00,62.4,58.2,29.83,SSE,167,0.0,0.0,86,0.00,,,0.06,Wunderground v.1.15,2013-09-07 22:32:00,
2013-09-07 18:37:00,62.6,58.7,29.83,SSE,167,0.0,0.0,87,0.00,,,0.06,Wunderground v.1.15,2013-09-07 22:37:00,
2013-09-07 18:47:00,62.7,58.5,29.83,South,175,0.0,0.0,86,0.00,,,0.06,Wunderground v.1.15,2013-09-07 22:47:00,
2013-09-07 18:52:00,62.9,58.6,29.83,South,176,0.0,3.0,86,0.00,,,0.06,Wunderground v.1.15,2013-09-07 22:52:00,
2013-09-07 19:02:00,63.1,58.8,29.83,South,176,0.0,0.0,86,0.00,,,0.06,Wunderground v.1.15,2013-09-07 23:02:00,
2013-09-07 19:07:00,63.1,58.5,29.83,South,181,0.0,0.0,85,0.00,,,0.06,Wunderground v.1.15,2013-09-07 23:07:00,
2013-09-07 19:17:00,63.2,58.3,29.83,South,181,0.0,0.0,84,0.00,,,0.06,Wunderground v.1.15,2013-09-07 23:17:00,
2013-09-07 19:23:00,63.2,58.3,29.83,South,181,0.0,0.0,84,0.00,,,0.06,Wunderground v.1.15,2013-09-07 23:23:00,
2013-09-07 19:32:00,63.2,58.3,29.83,South,181,0.0,0.0,84,0.00,,,0.06,Wunderground v.1.15,2013-09-07 23:32:00,
2013-09-07 19:37:00,63.4,58.1,29.83,South,184,0.0,0.0,83,0.00,,,0.06,Wunderground v.1.15,2013-09-07 23:37:00,
2013-09-07 19:47:00,63.5,57.9,29.83,South,185,0.0,0.0,82,0.00,,,0.06,Wunderground v.1.15,2013-09-07 23:47:00,
2013-09-07 19:52:00,63.5,57.9,29.83,South,185,0.0,0.0,82,0.00,,,0.06,Wunderground v.1.15,2013-09-07 23:52:00,
2013-09-07 20:02:00,63.7,57.8,29.83,South,185,0.0,0.0,81,0.00,,,0.06,Wunderground v.1.15,2013-09-08 00:02:00,
2013-09-07 20:07:00,63.7,57.8,29.83,South,185,0.0,0.0,81,0.00,,,0.06,Wunderground v.1.15,2013-09-08 00:07:00,
2013-09-07 20:17:00,63.9,58.0,29.83,South,185,0.0,0.0,81,0.00,,,0.06,Wunderground v.1.15,2013-09-08 00:17:00,
2013-09-07 20:27:00,64.0,58.1,29.83,South,185,0.0,0.0,81,0.00,,,0.06,Wunderground v.1.15,2013-09-08 00:27:00,
2013-09-07 20:37:00,64.0,58.1,29.83,South,185,0.0,0.0,81,0.00,,,0.06,Wunderground v.1.15,2013-09-08 00:37:00,
2013-09-07 20:47:00,64.0,58.1,29.83,South,185,0.0,0.0,81,0.00,,,0.06,Wunderground v.1.15,2013-09-08 00:47:00,
2013-09-07 20:52:00,64.0,58.1,29.83,South,185,0.0,0.0,81,0.00,,,0.06,Wunderground v.1.15,2013-09-08 00:52:00,
2013-09-07 21:02:00,64.0,58.4,29.83,South,185,0.0,0.0,82,0.35,,,0.08,Wunderground v.1.15,2013-09-08 01:02:00,
2013-09-07 21:12:00,63.9,59.0,29.83,South,185,0.0,0.0,84,0.07,,,0.10,Wunderground v.1.15,2013-09-08 01:12:00,
2013-09-07 21:22:00,63.4,58.8,29.82,South,185,0.0,0.0,85,0.00,,,0.10,Wunderground v.1.15,2013-09-08 01:22:00,
2013-09-07 21:32:00,63.2,58.9,29.82,South,185,0.0,0.0,86,0.00,,,0.10,Wunderground v.1.15,2013-09-08 01:32:00,
2013-09-07 21:37:00,63.1,59.2,29.82,South,185,0.0,0.0,87,0.00,,,0.10,Wunderground v.1.15,2013-09-08 01:37:00,
2013-09-07 21:47:00,62.9,59.0,29.82,South,185,0.0,0.0,87,0.00,,,0.10,Wunderground v.1.15,2013-09-08 01:47:00,
2013-09-07 21:52:00,62.7,58.8,29.82,South,185,0.0,0.0,87,0.00,,,0.10,Wunderground v.1.15,2013-09-08 01:52:00,
2013-09-07 22:02:00,62.6,59.0,29.81,South,185,0.0,0.0,88,0.00,,,0.10,Wunderground v.1.15,2013-09-08 02:02:00,
2013-09-07 22:07:00,62.4,58.8,29.81,South,185,0.0,0.0,88,0.00,,,0.10,Wunderground v.1.15,2013-09-08 02:07:00,
2013-09-07 22:17:00,62.3,59.0,29.81,South,185,0.0,0.0,89,0.00,,,0.10,Wunderground v.1.15,2013-09-08 02:17:00,
2013-09-07 22:22:00,62.3,59.0,29.81,South,185,0.0,0.0,89,0.00,,,0.10,Wunderground v.1.15,2013-09-08 02:22:00,
2013-09-07 22:32:00,62.3,59.0,29.81,South,185,0.0,0.0,89,0.00,,,0.10,Wunderground v.1.15,2013-09-08 02:32:00,
2013-09-07 22:37:00,62.3,59.0,29.81,South,185,0.0,0.0,89,0.00,,,0.10,Wunderground v.1.15,2013-09-08 02:37:00,
2013-09-07 22:47:00,62.3,59.0,29.81,South,185,0.0,0.0,89,0.00,,,0.10,Wunderground v.1.15,2013-09-08 02:47:00,
2013-09-07 22:53:00,62.4,59.1,29.81,South,185,0.0,0.0,89,0.00,,,0.10,Wunderground v.1.15,2013-09-08 02:53:00,
2013-09-07 23:02:00,62.6,59.6,29.81,South,185,0.0,0.0,90,0.00,,,0.10,Wunderground v.1.15,2013-09-08 03:02:00,
2013-09-07 23:07:00,62.6,59.6,29.81,South,185,0.0,0.0,90,0.00,,,0.10,Wunderground v.1.15,2013-09-08 03:07:00,
2013-09-07 23:17:00,62.6,59.6,29.81,South,185,0.0,0.0,90,0.00,,,0.10,Wunderground v.1.15,2013-09-08 03:17:00,
2013-09-07 23:27:00,62.6,59.6,29.81,South,185,0.0,0.0,90,0.00,,,0.10,Wunderground v.1.15,2013-09-08 03:27:00,
2013-09-07 23:38:00,62.7,59.7,29.80,South,185,0.0,0.0,90,0.00,,,0.10,Wunderground v.1.15,2013-09-08 03:38:00,
2013-09-07 23:47:00,62.7,59.7,29.80,South,185,0.0,0.0,90,0.00,,,0.10,Wunderground v.1.15,2013-09-08 03:47:00,
2013-09-07 23:57:00,62.7,59.7,29.80,South,185,0.0,0.0,90,0.00,,,0.10,Wunderground v.1.15,2013-09-08 03:57:00,